Simultaneous Nadir Overpasses (SNOs) Predictions

Prediction of SNOs between GOES-17 and NOAA-20 Satellite Orbit:

Table of predicted SNOs for the next 14.0 days since TLE Epoch: 2/19/2022
Index Date Time (GOES-17) GOES-17 Lat,Lon NOAA-20 Lat,Lon Distance(km) Time Diff (sec)
1 02/19/2022 22:30:12 0.04,-137.18 0.30,-136.01 133.34 80
2 02/21/2022 10:52:01 -0.04,-137.16 0.88,-141.28 470.20 80
3 02/22/2022 10:30:37 -0.04,-137.14 -0.13,-136.76 43.67 80
4 02/24/2022 22:33:51 0.04,-137.07 -0.09,-137.52 52.00 80
5 02/25/2022 22:17:48 0.03,-137.05 0.93,-133.00 461.23 80
6 02/27/2022 10:39:37 -0.02,-137.00 0.26,-138.27 144.02 80
7 02/28/2022 10:18:14 -0.01,-136.97 -0.76,-133.74 368.96 80
8 03/01/2022 22:40:11 0.00,-136.92 -0.47,-139.04 241.06 80
9 03/02/2022 22:24:07 0.00,-136.89 0.55,-134.51 271.74 80
10 03/04/2022 10:45:57 -0.00,-136.85 0.64,-139.78 333.97 80
